Year,Month,Day,Hour,Minute,Value (Times are PST for windspeed in km/hr)
2017,01,09,00,00,0.90
2017,01,09,00,01,0.10
2017,01,09,00,02,1.00
2017,01,09,00,03,2.00
2017,01,09,00,04,2.80
2017,01,09,00,05,2.80
2017,01,09,00,06,2.60
2017,01,09,00,07,2.70
2017,01,09,00,08,5.80
2017,01,09,00,09,6.20
2017,01,09,00,10,3.70
2017,01,09,00,11,1.70
2017,01,09,00,12,1.10
2017,01,09,00,13,2.10
2017,01,09,00,14,6.30
2017,01,09,00,15,7.30
2017,01,09,00,16,5.50
2017,01,09,00,17,3.80
2017,01,09,00,18,0.90
2017,01,09,00,19,0.10
2017,01,09,00,20,1.00
2017,01,09,00,21,1.40
2017,01,09,00,22,0.00
2017,01,09,00,23,2.30
2017,01,09,00,24,6.30
2017,01,09,00,25,6.90
2017,01,09,00,26,5.30
2017,01,09,00,27,2.70
2017,01,09,00,28,0.60
2017,01,09,00,29,1.80
2017,01,09,00,30,2.40
2017,01,09,00,31,2.40
2017,01,09,00,32,4.30
2017,01,09,00,33,3.70
2017,01,09,00,34,0.80
2017,01,09,00,35,0.50
2017,01,09,00,36,0.00
2017,01,09,00,37,1.60
2017,01,09,00,38,1.10
2017,01,09,00,39,0.00
2017,01,09,00,40,0.00
2017,01,09,00,41,0.00
2017,01,09,00,42,0.00
2017,01,09,00,43,0.10
2017,01,09,00,44,0.00
2017,01,09,00,45,0.00
2017,01,09,00,46,0.00
2017,01,09,00,47,0.00
2017,01,09,00,48,0.00
2017,01,09,00,49,0.00
2017,01,09,00,50,0.00
2017,01,09,00,51,0.00
2017,01,09,00,52,0.70
2017,01,09,00,53,0.30
2017,01,09,00,54,0.00
2017,01,09,00,55,0.00
2017,01,09,00,56,2.00
2017,01,09,00,57,0.90
2017,01,09,00,58,0.00
2017,01,09,00,59,0.00
2017,01,09,01,00,0.30
2017,01,09,01,01,0.00
2017,01,09,01,02,0.00
2017,01,09,01,03,0.00
2017,01,09,01,04,0.00
2017,01,09,01,05,0.00
2017,01,09,01,06,0.00
2017,01,09,01,07,0.00
2017,01,09,01,08,0.20
2017,01,09,01,09,2.10
2017,01,09,01,10,1.00
2017,01,09,01,11,0.00
2017,01,09,01,12,0.10
2017,01,09,01,13,0.00
2017,01,09,01,14,0.00
2017,01,09,01,15,0.10
2017,01,09,01,16,0.00
2017,01,09,01,17,0.00
2017,01,09,01,18,0.00
2017,01,09,01,19,0.00
2017,01,09,01,20,0.00
2017,01,09,01,21,0.00
2017,01,09,01,22,0.00
2017,01,09,01,23,0.00
2017,01,09,01,24,0.00
2017,01,09,01,25,0.00
2017,01,09,01,26,0.00
2017,01,09,01,27,0.00
2017,01,09,01,28,0.00
2017,01,09,01,29,0.00
2017,01,09,01,30,0.00
2017,01,09,01,31,0.00
2017,01,09,01,32,0.00
2017,01,09,01,33,0.00
2017,01,09,01,34,0.00
2017,01,09,01,35,0.00
2017,01,09,01,36,0.00
2017,01,09,01,37,0.00
2017,01,09,01,38,0.20
2017,01,09,01,39,0.00
2017,01,09,01,40,0.00
2017,01,09,01,41,0.00
2017,01,09,01,42,0.20
2017,01,09,01,43,1.00
2017,01,09,01,44,0.00
2017,01,09,01,45,0.50
2017,01,09,01,46,0.00
2017,01,09,01,47,1.20
2017,01,09,01,48,3.20
2017,01,09,01,49,0.00
2017,01,09,01,50,0.00
2017,01,09,01,51,0.00
2017,01,09,01,52,0.00
2017,01,09,01,53,0.00
2017,01,09,01,54,0.00
2017,01,09,01,55,0.10
2017,01,09,01,56,0.00
2017,01,09,01,57,0.40
2017,01,09,01,58,0.00
2017,01,09,01,59,0.70
2017,01,09,02,00,2.50
2017,01,09,02,01,2.70
2017,01,09,02,02,2.70
2017,01,09,02,03,2.10
2017,01,09,02,04,0.10
2017,01,09,02,05,2.20
2017,01,09,02,06,1.40
2017,01,09,02,07,2.50
2017,01,09,02,08,2.40
2017,01,09,02,09,1.30
2017,01,09,02,10,4.90
2017,01,09,02,11,3.40
2017,01,09,02,12,2.70
2017,01,09,02,13,3.10
2017,01,09,02,14,5.10
2017,01,09,02,15,4.90
2017,01,09,02,16,4.10
2017,01,09,02,17,6.20
2017,01,09,02,18,2.70
2017,01,09,02,19,9.40
2017,01,09,02,20,12.70
2017,01,09,02,21,13.20
2017,01,09,02,22,7.00
2017,01,09,02,23,9.90
2017,01,09,02,24,11.50
2017,01,09,02,25,10.50
2017,01,09,02,26,11.90
2017,01,09,02,27,13.00
2017,01,09,02,28,12.60
2017,01,09,02,29,19.50
2017,01,09,02,30,16.80
2017,01,09,02,31,19.90
2017,01,09,02,32,4.90
2017,01,09,02,33,11.70
2017,01,09,02,34,10.60
2017,01,09,02,35,17.40
2017,01,09,02,36,13.00
2017,01,09,02,37,16.40
2017,01,09,02,38,15.30
2017,01,09,02,39,7.40
2017,01,09,02,40,7.10
2017,01,09,02,41,7.80
2017,01,09,02,42,7.80
2017,01,09,02,43,7.90
2017,01,09,02,44,7.00
2017,01,09,02,45,5.90
2017,01,09,02,46,8.80
2017,01,09,02,47,4.60
2017,01,09,02,48,4.50
2017,01,09,02,49,5.40
2017,01,09,02,50,11.20
2017,01,09,02,51,5.10
2017,01,09,02,52,9.80
2017,01,09,02,53,4.10
2017,01,09,02,54,7.70
2017,01,09,02,55,10.60
2017,01,09,02,56,5.30
2017,01,09,02,57,6.40
2017,01,09,02,58,5.60
2017,01,09,02,59,5.40
2017,01,09,03,00,8.10
2017,01,09,03,01,7.60
2017,01,09,03,02,11.10
2017,01,09,03,03,4.40
2017,01,09,03,04,3.30
2017,01,09,03,05,6.30
2017,01,09,03,06,6.10
2017,01,09,03,07,4.40
2017,01,09,03,08,6.10
2017,01,09,03,09,5.20
2017,01,09,03,10,7.90
2017,01,09,03,11,3.40
2017,01,09,03,12,5.20
2017,01,09,03,13,2.20
2017,01,09,03,14,5.40
2017,01,09,03,15,6.80
2017,01,09,03,16,4.50
2017,01,09,03,17,6.60
2017,01,09,03,18,2.20
2017,01,09,03,19,2.80
2017,01,09,03,20,4.30
2017,01,09,03,21,5.70
2017,01,09,03,22,2.70
2017,01,09,03,23,2.10
2017,01,09,03,24,1.50
2017,01,09,03,25,2.10
2017,01,09,03,26,1.80
2017,01,09,03,27,0.80
2017,01,09,03,28,0.70
2017,01,09,03,29,1.90
2017,01,09,03,30,3.60
2017,01,09,03,31,1.70
2017,01,09,03,32,4.30
2017,01,09,03,33,2.00
2017,01,09,03,34,6.30
2017,01,09,03,35,2.20
2017,01,09,03,36,4.70
2017,01,09,03,37,5.40
2017,01,09,03,38,2.70
2017,01,09,03,39,4.70
2017,01,09,03,40,3.50
2017,01,09,03,41,3.60
2017,01,09,03,42,3.30
2017,01,09,03,43,2.00
2017,01,09,03,44,3.70
2017,01,09,03,45,1.60
2017,01,09,03,46,2.90
2017,01,09,03,47,4.40
2017,01,09,03,48,5.50
2017,01,09,03,49,4.80
2017,01,09,03,50,6.70
2017,01,09,03,51,3.20
2017,01,09,03,52,2.80
2017,01,09,03,53,6.10
2017,01,09,03,54,6.10
2017,01,09,03,55,4.50
2017,01,09,03,56,4.20
2017,01,09,03,57,0.90
2017,01,09,03,58,7.40
2017,01,09,03,59,3.10
2017,01,09,04,00,3.20
2017,01,09,04,01,9.60
2017,01,09,04,02,1.80
2017,01,09,04,03,2.30
2017,01,09,04,04,2.20
2017,01,09,04,05,3.70
2017,01,09,04,06,10.80
2017,01,09,04,07,2.90
2017,01,09,04,08,3.20
2017,01,09,04,09,1.50
2017,01,09,04,10,1.60
2017,01,09,04,11,6.20
2017,01,09,04,12,1.20
2017,01,09,04,13,0.40
2017,01,09,04,14,1.80
2017,01,09,04,15,2.90
2017,01,09,04,16,2.60
2017,01,09,04,17,0.00
2017,01,09,04,18,0.90
2017,01,09,04,19,2.50
2017,01,09,04,20,2.80
2017,01,09,04,21,6.70
2017,01,09,04,22,1.10
2017,01,09,04,23,0.60
2017,01,09,04,24,0.50
2017,01,09,04,25,2.10
2017,01,09,04,26,0.10
2017,01,09,04,27,0.10
2017,01,09,04,28,0.80
2017,01,09,04,29,0.00
2017,01,09,04,30,0.00
2017,01,09,04,31,0.70
2017,01,09,04,32,2.40
2017,01,09,04,33,1.80
2017,01,09,04,34,6.60
2017,01,09,04,35,4.90
2017,01,09,04,36,2.10
2017,01,09,04,37,3.10
2017,01,09,04,38,2.20
2017,01,09,04,39,0.30
2017,01,09,04,40,3.10
2017,01,09,04,41,3.70
2017,01,09,04,42,0.90
2017,01,09,04,43,4.90
2017,01,09,04,44,3.00
2017,01,09,04,45,9.80
2017,01,09,04,46,3.80
2017,01,09,04,47,5.70
2017,01,09,04,48,5.30
2017,01,09,04,49,4.70
2017,01,09,04,50,3.00
2017,01,09,04,51,1.30
2017,01,09,04,52,3.40
2017,01,09,04,53,5.30
2017,01,09,04,54,0.70
2017,01,09,04,55,4.50
2017,01,09,04,56,2.90
2017,01,09,04,57,3.10
2017,01,09,04,58,5.40
2017,01,09,04,59,2.70
2017,01,09,05,00,5.70
2017,01,09,05,01,5.60
2017,01,09,05,02,3.90
2017,01,09,05,03,4.60
2017,01,09,05,04,3.60
2017,01,09,05,05,3.70
2017,01,09,05,06,2.90
2017,01,09,05,07,1.40
2017,01,09,05,08,6.00
2017,01,09,05,09,3.80
2017,01,09,05,10,4.00
2017,01,09,05,11,2.70
2017,01,09,05,12,2.70
2017,01,09,05,13,2.60
2017,01,09,05,14,1.20
2017,01,09,05,15,2.60
2017,01,09,05,16,8.90
2017,01,09,05,17,5.30
2017,01,09,05,18,3.60
2017,01,09,05,19,4.70
2017,01,09,05,20,3.80
2017,01,09,05,21,1.30
2017,01,09,05,22,2.90
2017,01,09,05,23,3.80
2017,01,09,05,24,1.30
2017,01,09,05,25,2.90
2017,01,09,05,26,3.00
2017,01,09,05,27,2.40
2017,01,09,05,28,2.20
2017,01,09,05,29,2.90
2017,01,09,05,30,1.80
2017,01,09,05,31,0.10
2017,01,09,05,32,0.00
2017,01,09,05,33,0.10
2017,01,09,05,34,0.50
2017,01,09,05,35,0.10
2017,01,09,05,36,0.00
2017,01,09,05,37,0.40
2017,01,09,05,38,0.00
2017,01,09,05,39,0.00
2017,01,09,05,40,0.40
2017,01,09,05,41,0.10
2017,01,09,05,42,0.00
2017,01,09,05,43,0.00
2017,01,09,05,44,0.00
2017,01,09,05,45,0.00
2017,01,09,05,46,0.00
2017,01,09,05,47,0.00
2017,01,09,05,48,0.00
2017,01,09,05,49,0.10
2017,01,09,05,50,0.00
2017,01,09,05,51,0.00
2017,01,09,05,52,0.00
2017,01,09,05,53,0.10
2017,01,09,05,54,0.00
2017,01,09,05,55,0.10
2017,01,09,05,56,0.00
2017,01,09,05,57,0.00
2017,01,09,05,58,0.00
2017,01,09,05,59,0.00
2017,01,09,06,00,0.00
2017,01,09,06,01,0.00
2017,01,09,06,02,0.00
2017,01,09,06,03,0.00
2017,01,09,06,04,0.00
2017,01,09,06,05,0.10
2017,01,09,06,06,0.80
2017,01,09,06,07,1.60
2017,01,09,06,08,0.00
2017,01,09,06,09,0.00
2017,01,09,06,10,0.00
2017,01,09,06,11,0.00
2017,01,09,06,12,0.00
2017,01,09,06,13,0.00
2017,01,09,06,14,0.00
2017,01,09,06,15,0.00
2017,01,09,06,16,0.00
2017,01,09,06,17,0.30
2017,01,09,06,18,0.00
2017,01,09,06,19,0.00
2017,01,09,06,20,0.10
2017,01,09,06,21,1.30
2017,01,09,06,22,0.90
2017,01,09,06,23,0.90
2017,01,09,06,24,0.20
2017,01,09,06,25,0.00
2017,01,09,06,26,0.00
2017,01,09,06,27,0.00
2017,01,09,06,28,0.00
2017,01,09,06,29,1.30
2017,01,09,06,30,1.40
2017,01,09,06,31,0.10
2017,01,09,06,32,0.00
2017,01,09,06,33,0.00
2017,01,09,06,34,0.10
2017,01,09,06,35,1.10
2017,01,09,06,36,1.20
2017,01,09,06,37,0.00
2017,01,09,06,38,0.00
2017,01,09,06,39,0.00
2017,01,09,06,40,0.00
2017,01,09,06,41,0.00
2017,01,09,06,42,0.00
2017,01,09,06,43,0.00
2017,01,09,06,44,0.00
2017,01,09,06,45,0.00
2017,01,09,06,46,0.00
2017,01,09,06,47,0.00
2017,01,09,06,48,0.00
2017,01,09,06,49,0.00
2017,01,09,06,50,0.00
2017,01,09,06,51,0.00
2017,01,09,06,52,0.00
2017,01,09,06,53,0.00
2017,01,09,06,54,0.00
2017,01,09,06,55,0.00
2017,01,09,06,56,0.00
2017,01,09,06,57,0.00
2017,01,09,06,58,0.00
2017,01,09,06,59,0.10
2017,01,09,07,00,2.30
2017,01,09,07,01,0.60
2017,01,09,07,02,0.20
2017,01,09,07,03,0.00
2017,01,09,07,04,0.00
2017,01,09,07,05,0.00
2017,01,09,07,06,0.00
2017,01,09,07,07,0.00
2017,01,09,07,08,0.00
2017,01,09,07,09,0.00
2017,01,09,07,10,0.00
2017,01,09,07,11,0.00
2017,01,09,07,12,0.00
2017,01,09,07,13,0.00
2017,01,09,07,14,0.00
2017,01,09,07,15,0.00
2017,01,09,07,16,0.00
2017,01,09,07,17,0.00
2017,01,09,07,18,0.00
2017,01,09,07,19,0.00
2017,01,09,07,20,0.00
2017,01,09,07,21,0.00
2017,01,09,07,22,0.00
2017,01,09,07,23,0.00
2017,01,09,07,24,0.00
2017,01,09,07,25,0.00
2017,01,09,07,26,0.00
2017,01,09,07,27,0.00
2017,01,09,07,28,0.00
2017,01,09,07,29,0.00
2017,01,09,07,30,0.00
2017,01,09,07,31,0.00
2017,01,09,07,32,0.00
2017,01,09,07,33,0.00
2017,01,09,07,34,1.00
2017,01,09,07,35,0.10
2017,01,09,07,36,0.60
2017,01,09,07,37,0.10
2017,01,09,07,38,1.00
2017,01,09,07,39,0.20
2017,01,09,07,40,0.00
2017,01,09,07,41,0.20
2017,01,09,07,42,0.00
2017,01,09,07,43,0.00
2017,01,09,07,44,0.40
2017,01,09,07,45,2.30
2017,01,09,07,46,2.30
2017,01,09,07,47,0.00
2017,01,09,07,48,0.00
2017,01,09,07,49,0.00
2017,01,09,07,50,0.00
2017,01,09,07,51,0.00
2017,01,09,07,52,0.00
2017,01,09,07,53,0.00
2017,01,09,07,54,0.00
2017,01,09,07,55,0.00
2017,01,09,07,56,0.00
2017,01,09,07,57,0.00
2017,01,09,07,58,0.00
2017,01,09,07,59,0.00
2017,01,09,08,00,0.00
2017,01,09,08,01,0.00
2017,01,09,08,02,0.00
2017,01,09,08,03,0.00
2017,01,09,08,04,0.00
2017,01,09,08,05,0.00
2017,01,09,08,06,0.00
2017,01,09,08,07,0.00
2017,01,09,08,08,0.00
2017,01,09,08,09,0.00
2017,01,09,08,10,0.00
2017,01,09,08,11,0.00
2017,01,09,08,12,0.00
2017,01,09,08,13,0.00
2017,01,09,08,14,0.00
2017,01,09,08,15,0.00
2017,01,09,08,16,0.00
2017,01,09,08,17,0.00
2017,01,09,08,18,0.00
2017,01,09,08,19,0.00
2017,01,09,08,20,0.00
2017,01,09,08,21,0.00
2017,01,09,08,22,0.00
2017,01,09,08,23,0.00
2017,01,09,08,24,0.00
2017,01,09,08,25,0.00
2017,01,09,08,26,0.00
2017,01,09,08,27,0.00
2017,01,09,08,28,0.00
2017,01,09,08,29,0.00
2017,01,09,08,30,0.00
2017,01,09,08,31,0.00
2017,01,09,08,32,0.00
2017,01,09,08,33,0.00
2017,01,09,08,34,0.00
2017,01,09,08,35,0.00
2017,01,09,08,36,0.00
2017,01,09,08,37,0.90
2017,01,09,08,38,0.00
2017,01,09,08,39,0.00
2017,01,09,08,40,0.00
2017,01,09,08,41,0.00
2017,01,09,08,42,1.40
2017,01,09,08,43,0.00
2017,01,09,08,44,0.70
2017,01,09,08,45,1.70
2017,01,09,08,46,2.20
2017,01,09,08,47,3.20
2017,01,09,08,48,1.40
2017,01,09,08,49,0.20
2017,01,09,08,50,1.60
2017,01,09,08,51,0.10
2017,01,09,08,52,1.10
2017,01,09,08,53,1.30
2017,01,09,08,54,2.70
2017,01,09,08,55,0.50
2017,01,09,08,56,1.30
2017,01,09,08,57,0.40
2017,01,09,08,58,0.00
2017,01,09,08,59,0.00
2017,01,09,09,00,0.00
2017,01,09,09,01,0.00
2017,01,09,09,02,1.50
2017,01,09,09,03,1.40
2017,01,09,09,04,0.10
2017,01,09,09,05,0.00
2017,01,09,09,06,0.10
2017,01,09,09,07,0.30
2017,01,09,09,08,0.60
2017,01,09,09,09,1.50
2017,01,09,09,10,0.40
2017,01,09,09,11,0.10
2017,01,09,09,12,0.00
2017,01,09,09,13,0.80
2017,01,09,09,14,0.00
2017,01,09,09,15,0.10
2017,01,09,09,16,0.00
2017,01,09,09,17,0.00
2017,01,09,09,18,0.00
2017,01,09,09,19,0.00
2017,01,09,09,20,1.50
2017,01,09,09,21,0.00
2017,01,09,09,22,1.20
2017,01,09,09,23,1.60
2017,01,09,09,24,2.60
2017,01,09,09,25,1.00
2017,01,09,09,26,0.10
2017,01,09,09,27,0.00
2017,01,09,09,28,0.00
2017,01,09,09,29,0.00
2017,01,09,09,30,0.00
2017,01,09,09,31,1.20
2017,01,09,09,32,0.20
2017,01,09,09,33,0.30
2017,01,09,09,34,0.70
2017,01,09,09,35,0.00
2017,01,09,09,36,0.10
2017,01,09,09,37,2.00
2017,01,09,09,38,3.50
2017,01,09,09,39,3.30
2017,01,09,09,40,4.20
2017,01,09,09,41,2.70
2017,01,09,09,42,2.70
2017,01,09,09,43,1.00
2017,01,09,09,44,2.00
2017,01,09,09,45,0.20
2017,01,09,09,46,1.20
2017,01,09,09,47,1.40
2017,01,09,09,48,2.50
2017,01,09,09,49,3.40
2017,01,09,09,50,3.50
2017,01,09,09,51,5.00
2017,01,09,09,52,3.30
2017,01,09,09,53,5.40
2017,01,09,09,54,8.00
2017,01,09,09,55,3.20
2017,01,09,09,56,6.20
2017,01,09,09,57,6.50
2017,01,09,09,58,2.00
2017,01,09,09,59,3.80
2017,01,09,10,00,3.80
2017,01,09,10,01,3.00
2017,01,09,10,02,5.50
2017,01,09,10,03,5.70
2017,01,09,10,04,4.80
2017,01,09,10,05,1.90
2017,01,09,10,06,1.00
2017,01,09,10,07,1.80
2017,01,09,10,08,5.30
2017,01,09,10,09,7.80
2017,01,09,10,10,4.40
2017,01,09,10,11,4.10
2017,01,09,10,12,3.80
2017,01,09,10,13,5.80
2017,01,09,10,14,3.20
2017,01,09,10,15,5.60
2017,01,09,10,16,3.10
2017,01,09,10,17,0.40
2017,01,09,10,18,1.20
2017,01,09,10,19,2.10
2017,01,09,10,20,1.70
2017,01,09,10,21,1.70
2017,01,09,10,22,0.40
2017,01,09,10,23,2.40
2017,01,09,10,24,2.20
2017,01,09,10,25,2.50
2017,01,09,10,26,2.10
2017,01,09,10,27,0.20
2017,01,09,10,28,0.00
2017,01,09,10,29,0.00
2017,01,09,10,30,0.00
2017,01,09,10,31,0.00
2017,01,09,10,32,0.00
2017,01,09,10,33,0.00
2017,01,09,10,34,0.00
2017,01,09,10,35,0.00
2017,01,09,10,36,0.00
2017,01,09,10,37,0.00
2017,01,09,10,38,0.00
2017,01,09,10,39,0.00
2017,01,09,10,40,0.00
2017,01,09,10,41,0.00
2017,01,09,10,42,0.00
2017,01,09,10,43,0.00
2017,01,09,10,44,0.00
2017,01,09,10,45,0.00
2017,01,09,10,46,0.00
2017,01,09,10,47,0.00
2017,01,09,10,48,0.10
2017,01,09,10,49,2.20
2017,01,09,10,50,2.50
2017,01,09,10,51,0.40
2017,01,09,10,52,0.00
2017,01,09,10,53,0.00
2017,01,09,10,54,0.00
2017,01,09,10,55,0.00
2017,01,09,10,56,0.00
2017,01,09,10,57,0.00
2017,01,09,10,58,0.00
2017,01,09,10,59,0.00
2017,01,09,11,00,0.00
2017,01,09,11,01,0.00
2017,01,09,11,02,0.00
2017,01,09,11,03,0.00
2017,01,09,11,04,0.00
2017,01,09,11,05,0.10
2017,01,09,11,06,0.10
2017,01,09,11,07,0.10
2017,01,09,11,08,0.10
2017,01,09,11,09,1.70
2017,01,09,11,10,2.10
2017,01,09,11,11,1.70
2017,01,09,11,12,2.00
2017,01,09,11,13,1.20
2017,01,09,11,14,1.10
2017,01,09,11,15,1.30
2017,01,09,11,16,1.40
2017,01,09,11,17,2.10
2017,01,09,11,18,0.40
2017,01,09,11,19,0.00
2017,01,09,11,20,0.00
2017,01,09,11,21,1.40
2017,01,09,11,22,0.70
2017,01,09,11,23,1.20
2017,01,09,11,24,0.30
2017,01,09,11,25,0.00
2017,01,09,11,26,0.60
2017,01,09,11,27,2.80
2017,01,09,11,28,0.50
2017,01,09,11,29,0.40
2017,01,09,11,30,4.60
2017,01,09,11,31,4.80
2017,01,09,11,32,3.80
2017,01,09,11,33,1.80
2017,01,09,11,34,1.40
2017,01,09,11,35,0.80
2017,01,09,11,36,1.50
2017,01,09,11,37,2.10
2017,01,09,11,38,2.40
2017,01,09,11,39,2.90
2017,01,09,11,40,1.80
2017,01,09,11,41,2.20
2017,01,09,11,42,2.10
2017,01,09,11,43,2.50
2017,01,09,11,44,1.60
2017,01,09,11,45,2.10
2017,01,09,11,46,2.70
2017,01,09,11,47,4.40
2017,01,09,11,48,1.50
2017,01,09,11,49,3.10
2017,01,09,11,50,3.50
2017,01,09,11,51,2.50
2017,01,09,11,52,1.70
2017,01,09,11,53,2.50
2017,01,09,11,54,3.60
2017,01,09,11,55,1.40
2017,01,09,11,56,3.90
2017,01,09,11,57,2.20
2017,01,09,11,58,0.70
2017,01,09,11,59,1.70
2017,01,09,12,00,0.40
2017,01,09,12,01,1.70
2017,01,09,12,02,2.90
2017,01,09,12,03,0.90
2017,01,09,12,04,1.20
2017,01,09,12,05,3.40
2017,01,09,12,06,1.20
2017,01,09,12,07,3.90
2017,01,09,12,08,3.10
2017,01,09,12,09,3.20
2017,01,09,12,10,5.10
2017,01,09,12,11,2.40
2017,01,09,12,12,2.90
2017,01,09,12,13,0.70
2017,01,09,12,14,1.80
2017,01,09,12,15,1.50
2017,01,09,12,16,3.40
2017,01,09,12,17,3.00
2017,01,09,12,18,1.60
2017,01,09,12,19,3.80
2017,01,09,12,20,3.60
2017,01,09,12,21,4.00
2017,01,09,12,22,0.80
2017,01,09,12,23,2.40
2017,01,09,12,24,3.70
2017,01,09,12,25,2.20
2017,01,09,12,26,1.30
2017,01,09,12,27,0.00
2017,01,09,12,28,0.00
2017,01,09,12,29,0.00
2017,01,09,12,30,1.00
2017,01,09,12,31,1.30
2017,01,09,12,32,2.20
2017,01,09,12,33,1.00
2017,01,09,12,34,1.10
2017,01,09,12,35,0.00
2017,01,09,12,36,0.00
2017,01,09,12,37,0.00
2017,01,09,12,38,0.00
2017,01,09,12,39,0.00
2017,01,09,12,40,0.00
2017,01,09,12,41,0.00
2017,01,09,12,42,0.00
2017,01,09,12,43,0.00
2017,01,09,12,44,0.10
2017,01,09,12,45,2.20
2017,01,09,12,46,2.10
2017,01,09,12,47,1.30
2017,01,09,12,48,2.50
2017,01,09,12,49,1.60
2017,01,09,12,50,0.00
2017,01,09,12,51,0.00
2017,01,09,12,52,0.00
2017,01,09,12,53,1.10
2017,01,09,12,54,0.20
2017,01,09,12,55,0.00
2017,01,09,12,56,1.00
2017,01,09,12,57,3.50
2017,01,09,12,58,2.70
2017,01,09,12,59,3.00
2017,01,09,13,00,2.20
2017,01,09,13,01,1.20
2017,01,09,13,02,2.40
2017,01,09,13,03,1.50
2017,01,09,13,04,0.60
2017,01,09,13,05,0.60
2017,01,09,13,06,1.20
2017,01,09,13,07,1.20
2017,01,09,13,08,0.60
2017,01,09,13,09,0.80
2017,01,09,13,10,0.10
2017,01,09,13,11,0.70
2017,01,09,13,12,0.00
2017,01,09,13,13,0.00
2017,01,09,13,14,1.50
2017,01,09,13,15,1.50
2017,01,09,13,16,0.50
2017,01,09,13,17,0.00
2017,01,09,13,18,0.00
2017,01,09,13,19,0.50
2017,01,09,13,20,1.40
2017,01,09,13,21,1.00
2017,01,09,13,22,1.90
2017,01,09,13,23,2.40
2017,01,09,13,24,2.10
2017,01,09,13,25,1.70
2017,01,09,13,26,2.10
2017,01,09,13,27,2.00
2017,01,09,13,28,2.80
2017,01,09,13,29,3.00
2017,01,09,13,30,2.30
2017,01,09,13,31,3.20
2017,01,09,13,32,2.70
2017,01,09,13,33,0.20
2017,01,09,13,34,0.60
2017,01,09,13,35,0.90
2017,01,09,13,36,2.10
2017,01,09,13,37,1.90
2017,01,09,13,38,1.50
2017,01,09,13,39,1.30
2017,01,09,13,40,1.20
2017,01,09,13,41,6.40
2017,01,09,13,42,5.30
2017,01,09,13,43,5.80
2017,01,09,13,44,2.10
2017,01,09,13,45,3.50
2017,01,09,13,46,3.50
2017,01,09,13,47,2.70
2017,01,09,13,48,3.70
2017,01,09,13,49,4.10
2017,01,09,13,50,3.00
2017,01,09,13,51,3.50
2017,01,09,13,52,4.10
2017,01,09,13,53,2.80
2017,01,09,13,54,1.10
2017,01,09,13,55,0.70
2017,01,09,13,56,3.90
2017,01,09,13,57,3.10
2017,01,09,13,58,3.90
2017,01,09,13,59,4.30
2017,01,09,14,00,2.70
2017,01,09,14,01,5.30
2017,01,09,14,02,6.70
2017,01,09,14,03,5.50
2017,01,09,14,04,4.80
2017,01,09,14,05,5.30
2017,01,09,14,06,4.80
2017,01,09,14,07,2.40
2017,01,09,14,08,5.10
2017,01,09,14,09,6.30
2017,01,09,14,10,5.60
2017,01,09,14,11,6.40
2017,01,09,14,12,4.50
2017,01,09,14,13,6.00
2017,01,09,14,14,3.80
2017,01,09,14,15,6.30
2017,01,09,14,16,4.00
2017,01,09,14,17,3.20
2017,01,09,14,18,4.50
2017,01,09,14,19,3.90
2017,01,09,14,20,2.20
2017,01,09,14,21,2.00
2017,01,09,14,22,1.00
2017,01,09,14,23,1.20
2017,01,09,14,24,2.00
2017,01,09,14,25,3.30
2017,01,09,14,26,1.00
2017,01,09,14,27,3.60
2017,01,09,14,28,3.00
2017,01,09,14,29,4.10
2017,01,09,14,30,1.20
2017,01,09,14,31,0.70
2017,01,09,14,32,1.10
2017,01,09,14,33,3.10
2017,01,09,14,34,3.70
2017,01,09,14,35,2.30
2017,01,09,14,36,4.10
2017,01,09,14,37,2.20
2017,01,09,14,38,1.40
2017,01,09,14,39,3.10
2017,01,09,14,40,4.70
2017,01,09,14,41,3.80
2017,01,09,14,42,3.60
2017,01,09,14,43,2.90
2017,01,09,14,44,1.20
2017,01,09,14,45,3.20
2017,01,09,14,46,4.60
2017,01,09,14,47,3.50
2017,01,09,14,48,1.50
2017,01,09,14,49,4.10
2017,01,09,14,50,1.80
2017,01,09,14,51,2.00
2017,01,09,14,52,4.60
2017,01,09,14,53,2.70
2017,01,09,14,54,7.10
2017,01,09,14,55,4.00
2017,01,09,14,56,1.50
2017,01,09,14,57,4.80
2017,01,09,14,58,6.70
2017,01,09,14,59,6.50
2017,01,09,15,00,4.40
2017,01,09,15,01,4.40
2017,01,09,15,02,6.00
2017,01,09,15,03,5.50
2017,01,09,15,04,4.30
2017,01,09,15,05,1.90
2017,01,09,15,06,5.00
2017,01,09,15,07,4.30
2017,01,09,15,08,3.30
2017,01,09,15,09,5.20
2017,01,09,15,10,4.30
2017,01,09,15,11,2.60
2017,01,09,15,12,4.70
2017,01,09,15,13,4.50
2017,01,09,15,14,4.00
2017,01,09,15,15,6.00
2017,01,09,15,16,3.50
2017,01,09,15,17,3.10
2017,01,09,15,18,3.80
2017,01,09,15,19,6.10
2017,01,09,15,20,4.60
2017,01,09,15,21,5.10
2017,01,09,15,22,6.00
2017,01,09,15,23,4.10
2017,01,09,15,24,4.30
2017,01,09,15,25,3.90
2017,01,09,15,26,5.80
2017,01,09,15,27,4.00
2017,01,09,15,28,3.70
2017,01,09,15,29,2.80
2017,01,09,15,30,3.00
2017,01,09,15,31,3.90
2017,01,09,15,32,1.50
2017,01,09,15,33,3.30
2017,01,09,15,34,1.00
2017,01,09,15,35,3.50
2017,01,09,15,36,3.50
2017,01,09,15,37,3.20
2017,01,09,15,38,1.30
2017,01,09,15,39,1.00
2017,01,09,15,40,1.70
2017,01,09,15,41,2.10
2017,01,09,15,42,0.90
2017,01,09,15,43,2.00
2017,01,09,15,44,1.90
2017,01,09,15,45,0.60
2017,01,09,15,46,0.90
2017,01,09,15,47,0.40
2017,01,09,15,48,0.00
2017,01,09,15,49,0.00
2017,01,09,15,50,0.00
2017,01,09,15,51,0.30
2017,01,09,15,52,1.10
2017,01,09,15,53,0.20
2017,01,09,15,54,0.00
2017,01,09,15,55,0.00
2017,01,09,15,56,0.80
2017,01,09,15,57,1.00
2017,01,09,15,58,0.90
2017,01,09,15,59,1.00
2017,01,09,16,00,0.00
2017,01,09,16,01,0.10
2017,01,09,16,02,0.00
2017,01,09,16,03,0.60
2017,01,09,16,04,0.80
2017,01,09,16,05,0.40
2017,01,09,16,06,0.10
2017,01,09,16,07,0.40
2017,01,09,16,08,1.20
2017,01,09,16,09,1.20
2017,01,09,16,10,1.40
2017,01,09,16,11,0.50
2017,01,09,16,12,0.10
2017,01,09,16,13,0.80
2017,01,09,16,14,0.00
2017,01,09,16,15,1.20
2017,01,09,16,16,2.20
2017,01,09,16,17,2.00
2017,01,09,16,18,1.60
2017,01,09,16,19,0.90
2017,01,09,16,20,0.00
2017,01,09,16,21,0.10
2017,01,09,16,22,0.00
2017,01,09,16,23,0.00
2017,01,09,16,24,0.00
2017,01,09,16,25,0.00
2017,01,09,16,26,0.00
2017,01,09,16,27,0.50
2017,01,09,16,28,0.10
2017,01,09,16,29,0.00
2017,01,09,16,30,0.00
2017,01,09,16,31,0.00
2017,01,09,16,32,0.00
2017,01,09,16,33,1.40
2017,01,09,16,34,1.30
2017,01,09,16,35,0.00
2017,01,09,16,36,0.00
2017,01,09,16,37,0.20
2017,01,09,16,38,0.10
2017,01,09,16,39,0.00
2017,01,09,16,40,0.20
2017,01,09,16,41,0.20
2017,01,09,16,42,0.70
2017,01,09,16,43,1.10
2017,01,09,16,44,1.50
2017,01,09,16,45,2.00
2017,01,09,16,46,1.50
2017,01,09,16,47,0.60
2017,01,09,16,48,0.20
2017,01,09,16,49,0.00
2017,01,09,16,50,0.00
2017,01,09,16,51,0.00
2017,01,09,16,52,0.00
2017,01,09,16,53,0.00
2017,01,09,16,54,0.00
2017,01,09,16,55,0.00
2017,01,09,16,56,0.00
2017,01,09,16,57,0.00
2017,01,09,16,58,0.00
2017,01,09,16,59,0.00
2017,01,09,17,00,0.00
2017,01,09,17,01,0.00
2017,01,09,17,02,0.00
2017,01,09,17,03,0.20
2017,01,09,17,04,1.00
2017,01,09,17,05,0.80
2017,01,09,17,06,0.30
2017,01,09,17,07,0.30
2017,01,09,17,08,0.60
2017,01,09,17,09,0.00
2017,01,09,17,10,0.40
2017,01,09,17,11,0.90
2017,01,09,17,12,0.40
2017,01,09,17,13,1.00
2017,01,09,17,14,0.60
2017,01,09,17,15,0.00
2017,01,09,17,16,0.50
2017,01,09,17,17,0.10
2017,01,09,17,18,1.00
2017,01,09,17,19,0.90
2017,01,09,17,20,0.60
2017,01,09,17,21,2.50
2017,01,09,17,22,0.60
2017,01,09,17,23,0.40
2017,01,09,17,24,0.60
2017,01,09,17,25,0.70
2017,01,09,17,26,0.20
2017,01,09,17,27,0.10
2017,01,09,17,28,0.20
2017,01,09,17,29,0.00
2017,01,09,17,30,0.30
2017,01,09,17,31,1.00
2017,01,09,17,32,2.00
2017,01,09,17,33,2.70
2017,01,09,17,34,1.50
2017,01,09,17,35,0.50
2017,01,09,17,36,0.00
2017,01,09,17,37,0.00
2017,01,09,17,38,0.00
2017,01,09,17,39,0.00
2017,01,09,17,40,0.00
2017,01,09,17,41,1.80
2017,01,09,17,42,2.60
2017,01,09,17,43,1.90
2017,01,09,17,44,0.20
2017,01,09,17,45,0.00
2017,01,09,17,46,1.20
2017,01,09,17,47,1.80
2017,01,09,17,48,0.60
2017,01,09,17,49,3.20
2017,01,09,17,50,2.20
2017,01,09,17,51,0.10
2017,01,09,17,52,0.00
2017,01,09,17,53,0.00
2017,01,09,17,54,0.50
2017,01,09,17,55,0.20
2017,01,09,17,56,0.00
2017,01,09,17,57,0.10
2017,01,09,17,58,1.10
2017,01,09,17,59,2.10
2017,01,09,18,00,2.30
2017,01,09,18,01,1.30
2017,01,09,18,02,1.20
2017,01,09,18,03,1.20
2017,01,09,18,04,0.00
2017,01,09,18,05,0.80